Regional Weather Roundup
Issued by NWS

Home | Current Version | Previous Version | Graphics & Text | Print | Product List | Glossary Off
Versions: 1 2 3 4 5 6 7 8 9 10 11 12 13 14 15 16 17 18 19 20 21 22 23 24 25 26 27 28 29 30 31 32 33 34 35 36 37 38 39 40 41 42 43 44 45 46 47 48 49 50

000
ASUS43 KTOP 042359
RWRKS

WEATHER ROUNDUP FOR KANSAS
NATIONAL WEATHER SERVICE GOODLAND KS
700 PM CDT MON MAY 04 2015

NOTE:  "FAIR" INDICATES FEW OR NO CLOUDS BELOW 12,000 FEET WITH NO
SIGNIFICANT WEATHER AND/OR OBSTRUCTIONS TO VISIBILITY.

KSZ001>006-013>018-027>032-041>047-050100-
NORTHWEST KANSAS

CITY           SKY/WX    TMP DP  RH WIND       PRES   REMARKS
GOODLAND       CLOUDY    61  49  64 NE13      30.05R
6HR MIN TEMP:  57; 6HR MAX TEMP:  66; 6HR PCP: TRACE;

HAYS           CLOUDY    66  55  68 CALM      29.98R
HILL CITY      PTSUNNY   65  54  67 N13       30.01S
6HR MIN TEMP:  62; 6HR MAX TEMP:  72;

RUSSELL        CLOUDY    67  60  78 N10       29.96R
6HR MIN TEMP:  65; 6HR MAX TEMP:  76; 6HR PCP:  0.04;

$$

KSZ061>065-074>080-084>089-050100-
SOUTHWEST KANSAS

CITY           SKY/WX    TMP DP  RH WIND       PRES   REMARKS
DODGE CITY     PTSUNNY   63  50  62 S22G38    29.96R THUNDER
6HR MIN TEMP:  61; 6HR MAX TEMP:  84;

ELKHART          N/A     61  51  70 W10         N/A
GARDEN CITY    CLOUDY    68  51  54 S37G48    29.96R THUNDER
6HR MIN TEMP:  68; 6HR MAX TEMP:  81;

GREAT BEND     PTSUNNY   66  59  77 NE16      29.93F THUNDER
LIBERAL        CLOUDY    63  54  72 SE6       29.99F
$$

KSZ066>073-081>083-090>101-050100-
SOUTHEAST KANSAS

CITY           SKY/WX    TMP DP  RH WIND       PRES   REMARKS
CHANUTE        SUNNY     78  59  51 S20G25    29.97F
6HR MIN TEMP:  78; 6HR MAX TEMP:  83;

COFFEYVILLE    SUNNY     79  59  50 S16G23    29.97F
6HR MIN TEMP:  79; 6HR MAX TEMP:  83;

HUTCHINSON     MOSUNNY   80  61  52 S22G29    29.92S
6HR MIN TEMP:  78; 6HR MAX TEMP:  83;

MEDICINE LODGE   N/A     76  62  62 S10G18    29.91F
NEWTON         PTSUNNY   77  57  50 S15       29.95S
PARSONS        SUNNY     79  60  52 S9G21     29.98F
6HR MIN TEMP:  79; 6HR MAX TEMP:  84;

WICHITA INTL   PTSUNNY   80  59  48 S23       29.92F
6HR MIN TEMP:  80; 6HR MAX TEMP:  85;

WICHITA JABRA  MOSUNNY   80  59  48 S22G28    29.92F
6HR MIN TEMP:  78; 6HR MAX TEMP:  83;

WINFIELD       MOSUNNY   79  59  50 S21G26    29.95F
6HR MIN TEMP:  78; 6HR MAX TEMP:  83;

$$

KSZ007>012-019>026-033>040-048>060-102>105-050100-
NORTHEAST KANSAS

CITY           SKY/WX    TMP DP  RH WIND       PRES   REMARKS
CONCORDIA      CLOUDY    67  60  78 NE13      29.97S
6HR MIN TEMP:  67; 6HR MAX TEMP:  74; 6HR PCP: TRACE;

EMPORIA        PTSUNNY   79  58  48 S17       29.96R
6HR MIN TEMP:  79; 6HR MAX TEMP:  83;

LAWRENCE       CLOUDY    66  59  78 N23       30.00R
6HR MIN TEMP:  66; 6HR MAX TEMP:  85; 6HR PCP:  0.03;

MANHATTAN      TSTM      63  60  90 NE12      29.97S
6HR MIN TEMP:  62; 6HR MAX TEMP:  85; 6HR PCP:  2.97;

OLATHE IND     PTSUNNY   78  60  53 S13       30.00R
6HR MIN TEMP:  78; 6HR MAX TEMP:  85;

OLATHE EXE     MOSUNNY   77  61  57 S10       29.98R
6HR MIN TEMP:  77; 6HR MAX TEMP:  83;

SALINA         CLOUDY    68  62  81 NE8       29.93S THUNDER
6HR MIN TEMP:  68; 6HR MAX TEMP:  84; 6HR PCP:  0.15;

TOPEKA BILLARD LGT RAIN  65  57  75 N18G31    30.01R
6HR MIN TEMP:  65; 6HR MAX TEMP:  85; 6HR PCP: TRACE;

TOPEKA FORBES  CLOUDY    69  58  67 N20G25    30.00R
6HR MIN TEMP:  69; 6HR MAX TEMP:  86;

$$


USA.gov is the U.S. government's official web portal to all federal, state and local government web resources and services.